TimeEET,TemperatureF,Dew PointF,Humidity,Sea Level PressureIn,VisibilityMPH,Wind Direction,Wind SpeedMPH,Gust SpeedMPH,PrecipitationIn,Events,Conditions,WindDirDegrees,DateUTC
12:00 AM,48.2,35.6,62,30.27,-9999.0,ENE,6.9,-,N/A,,Clear,60,2013-01-15 22:00:00
2:00 AM,50,36,47,30.25,9,NNE,4.5,,,,,30,2013-01-16 00:00:00
2:00 AM,46.4,33.8,62,30.27,-9999.0,ENE,6.9,-,N/A,,Clear,60,2013-01-16 00:00:00
7:00 AM,48.2,28.4,46,30.24,-9999.0,East,5.8,-,N/A,,Clear,90,2013-01-16 05:00:00
8:00 AM,49,34,44,30.25,9,NE,4.5,,,,,40,2013-01-16 06:00:00
8:00 AM,50.0,33.8,54,30.27,-9999.0,North,10.4,-,N/A,,Clear,360,2013-01-16 06:00:00
9:00 AM,53.6,35.6,51,30.27,-9999.0,North,9.2,-,N/A,,Clear,360,2013-01-16 07:00:00
10:00 AM,59.0,37.4,45,30.24,-9999.0,East,13.8,-,N/A,,Clear,90,2013-01-16 08:00:00
11:00 AM,64.4,33.8,32,30.21,-9999.0,ESE,9.2,-,N/A,,Clear,120,2013-01-16 09:00:00
12:00 PM,66.2,33.8,30,30.18,-9999.0,South,6.9,-,N/A,,Clear,180,2013-01-16 10:00:00
1:00 PM,66.2,35.6,32,30.15,-9999.0,WSW,4.6,-,N/A,,Clear,250,2013-01-16 11:00:00
2:00 PM,62,35,25,30.15,9,North,6.7,,,,Clear,10,2013-01-16 12:00:00
2:00 PM,64.4,35.6,34,30.15,-9999.0,ESE,6.9,-,N/A,,Clear,110,2013-01-16 12:00:00
3:00 PM,64.4,30.2,28,30.15,-9999.0,ESE,9.2,-,N/A,,Clear,120,2013-01-16 13:00:00
4:00 PM,60.8,32.0,34,30.12,-9999.0,ESE,11.5,-,N/A,,Clear,110,2013-01-16 14:00:00
5:00 PM,59.0,33.8,39,30.12,-9999.0,ESE,13.8,-,N/A,,Clear,120,2013-01-16 15:00:00
6:00 PM,55.4,33.8,44,30.12,-9999.0,ESE,4.6,-,N/A,,Clear,120,2013-01-16 16:00:00
7:00 PM,53.6,33.8,47,30.12,-9999.0,SW,4.6,-,N/A,,Clear,230,2013-01-16 17:00:00
8:00 PM,55.4,32.0,41,30.12,-9999.0,WSW,4.6,-,N/A,,Clear,250,2013-01-16 18:00:00
9:00 PM,53.6,37.4,54,30.09,-9999.0,NNW,4.6,-,N/A,,Clear,330,2013-01-16 19:00:00
10:00 PM,51.8,35.6,54,30.09,-9999.0,NNE,4.6,-,N/A,,Clear,30,2013-01-16 20:00:00
11:00 PM,50.0,35.6,58,30.09,-9999.0,NNE,4.6,-,N/A,,Clear,30,2013-01-16 21:00:00